Regional Weather Roundup
Issued by NWS

Home | Current Version | Previous Version | Graphics & Text | Print | Product List | Glossary On
Versions: 1 2 3 4 5 6 7 8 9 10 11 12 13 14 15 16 17 18 19 20 21 22 23 24 25 26 27 28 29 30 31 32 33 34 35 36 37 38 39 40 41 42 43 44 45 46 47 48 49 50
000
ASUS45 KSLC 260110
RWRUT

UTAH REGIONAL WEATHER ROUNDUP
NATIONAL WEATHER SERVICE SALT LAKE CITY UT
600 PM MST SUN JAN 25 2015

UTZ001>011-023>025-260200-

NORTHERN UTAH

CITY           SKY/WX    TMP DP  RH WIND       PRES   REMARKS
BRIGHAM CITY   MOCLDY    42  29  61 W3        30.43S
HILL AFB       PTCLDY    42  25  51 N6        30.41S
LOGAN          CLEAR     39  32  76 E3        30.42S
OGDEN          MOCLDY    40  30  67 N5        30.41S
PROVO AIRPORT  NOT AVBL
SALT LAKE CITY MOCLDY    41  31  67 NW9       30.41S
VERNAL         CLEAR     34  21  59 CALM      30.36R
WENDOVER       PTCLDY    39  28  65 CALM      30.42S
HEBER CITY     PTCLDY    32  28  86 CALM      30.40S
WEST JORDAN    CLEAR     39  34  81 W7        30.41S WCI  34

$$

UTZ012>022-026-027-260200-

SOUTHERN/CENTRAL UTAH

CITY           SKY/WX    TMP DP  RH WIND       PRES   REMARKS
BLANDING       CLEAR     49  24  37 SW3       30.35S
BRYCE CANYON   CLEAR     40  26  57 NE3       30.37R
CEDAR CITY     CLEAR     43  30  60 N7        30.32S
DELTA          CLEAR     46  33  59 N3        30.38S
MILFORD        CLEAR     45  31  58 N18       30.34S
MOAB/CYNLANDS  CLEAR     40  23  50 CALM      30.32R
PRICE          PTCLDY    41  21  44 E5        30.33S
ST GEORGE      PTCLDY    64  30  27 CALM      30.23R
KANAB          CLEAR     48  23  37 NE5       30.30S

$$

REGIONAL REPORTS     COLORADO/ARIZONA

CITY           SKY/WX    TMP DP  RH WIND       PRES   REMARKS
CRAIG, CO        N/A     29  24  82 SW3       30.37R
GRAND JUNCTION MOCLDY    35  24  64 NE7       30.33S WCI  29
RIFLE          PTCLDY    42  23  46 SW5       30.35R
MONTROSE       MOCLDY    39  19  44 S7        30.37R WCI  34
CORTEZ         CLEAR     41  24  51 SW5       30.27R
PAGE, AZ       NOT AVBL
GRAND CANYON   CLEAR     46  21  37 E7        30.32S
KINGMAN        PTCLDY    56  26  31 NE7       30.15S
FLAGSTAFF      PTCLDY    45  21  38 E6        30.32S

$$

REGIONAL REPORTS    NEVADA/IDAHO/WYOMING

CITY           SKY/WX    TMP DP  RH WIND       PRES   REMARKS
LAS VEGAS, NV  PTCLDY    70  31  23 W3        30.11S
ELY            CLEAR     49  29  46 N6        30.37R
ELKO           PTCLDY    48  34  58 E3        30.35F
POCATELLO, ID  PTCLDY    31  30  96 NE6       30.44R WCI  25
BURLEY         PTCLDY    40  33  76 NE10      30.38S WCI  33
EVANSTON, WY   PTCLDY    42  30  62 W3        30.42S
ROCK SPRINGS   CLEAR     40  26  57 W5        30.35R
KEMMERER       CLEAR     34  30  86 NW12      30.43R WCI  25

$$


USA.gov is the U.S. government's official web portal to all federal, state and local government web resources and services.